SCD 1 1 22490U 93009B 26061.62742050 .00000514 00000+0 89647-4 0 9996 2 22490 24.9680 145.4917 0042219 90.1877 56.7842 14.46062608745677 TECHSAT 1B (GO-32) 1 25397U 98043D 26061.50493037 .00000111 00000+0 68119-4 0 9997 2 25397 99.0018 51.6019 0001855 130.8341 229.2998 14.24403781436149 SCD 2 1 25504U 98060A 26061.58726453 .00000534 00000+0 98124-4 0 9993 2 25504 24.9966 9.5387 0016982 76.9816 83.7850 14.45478214444888 DLR-TUBSAT 1 25757U 99029B 26061.85676679 .00000175 00000+0 54754-4 0 9995 2 25757 98.6656 53.8863 0013402 317.1280 42.8869 14.52394274417812 TERRA 1 25994U 99068A 26061.80781814 .00000548 00000+0 12082-3 0 9995 2 25994 97.9608 115.5050 0002235 168.5808 303.7174 14.61006057394073 MAROC-TUBSAT 1 27004U 01056D 26061.46934165 -.00000009 00000+0 42772-4 0 9993 2 27004 99.7999 236.3360 0020465 57.5093 357.3632 13.70257625211579 AQUA 1 27424U 02022A 26061.90159334 .00001285 00000+0 26639-3 0 9998 2 27424 98.4162 29.1435 0000685 56.8605 326.0417 14.61956893267745 IRS-P6 (RESOURCESAT-1) 1 28051U 03046A 26061.84811624 .00000148 00000+0 63652-4 0 9996 2 28051 98.2063 103.5016 0063133 302.0217 162.3236 14.36111670165266 SHIYAN-1 (SY-1) 1 28220U 04012A 26061.74276271 .00016921 00000+0 57052-3 0 9992 2 28220 97.8787 133.0999 0006450 46.1755 314.0017 15.30787206194794 AURA 1 28376U 04026A 26061.84898817 .00001247 00000+0 26327-3 0 9992 2 28376 98.3299 17.5081 0001020 77.7244 282.4070 14.61129129150683 IRS-P5 (CARTOSAT-1) 1 28649U 05017A 26061.63382803 .00002061 00000+0 21518-3 0 9998 2 28649 97.5422 89.4955 0002526 77.2017 282.9484 14.90735256127941 SINAH 1 1 28893U 05043D 26061.78364440 .00000605 00000+0 12460-3 0 9999 2 28893 98.2672 195.5884 0013371 247.5908 112.3878 14.64063663 84951 RESURS-DK 1 1 29228U 06021A 26061.72457365 .00003215 00000+0 18935-3 0 9995 2 29228 69.9303 255.0413 0002475 165.5368 194.5869 15.12688957 86476 ARIRANG-2 (KOMPSAT-2) 1 29268U 06031A 26061.86308602 .00000842 00000+0 16689-3 0 9991 2 29268 97.8294 251.4460 0015597 53.9245 58.2422 14.64582629 45914 LAPAN-TUBSAT 1 29709U 07001A 26061.85614374 .00000348 00000+0 46543-4 0 9998 2 29709 98.1321 58.7048 0012309 165.7175 194.4390 14.85815441 35360 HAIYANG-1B 1 31113U 07010A 26061.58553703 .00000133 00000+0 66431-4 0 9998 2 31113 98.3418 47.6107 0013955 152.7731 207.4187 14.30996710985380 COSMO-SKYMED 1 1 31598U 07023A 26061.84436346 .00003878 00000+0 34689-3 0 9999 2 31598 97.8863 252.8222 0000835 85.9902 274.1414 14.96469537 13888 TERRASAR-X 1 31698U 07026A 26061.55096637 .00001962 00000+0 96617-4 0 9998 2 31698 97.4467 70.7747 0001802 76.7712 283.3724 15.19148840 37032 WORLDVIEW-1 (WV-1) 1 32060U 07041A 26061.81004786 .00010441 00000+0 42880-3 0 9996 2 32060 97.3826 183.0903 0002820 154.6623 205.4753 15.24384572 26679 YAOGAN-3 1 32289U 07055A 26061.86076880 .00001107 00000+0 11959-3 0 9995 2 32289 97.8283 92.7581 0001781 84.8733 275.2688 14.90318764990026 COSMO-SKYMED 2 1 32376U 07059A 26061.83195988 .00000702 00000+0 94683-4 0 9990 2 32376 97.8859 246.9674 0001315 82.4968 277.6395 14.82154958986249 RADARSAT-2 1 32382U 07061A 26061.82201073 -.00000062 00000+0 -71767-5 0 9992 2 32382 98.5812 70.2596 0001180 84.4940 275.6377 14.29980647950754 CARTOSAT-2A 1 32783U 08021A 26061.84089734 .00001250 00000+0 17538-3 0 9996 2 32783 97.7797 114.1141 0013263 96.3318 263.9405 14.79085670963081 HUANJING 1A (HJ-1A) 1 33320U 08041A 26061.89121310 .00001214 00000+0 15260-3 0 9998 2 33320 97.6618 51.8989 0020292 124.2890 236.0250 14.83690235942645 HUANJING 1B (HJ-1B) 1 33321U 08041B 26061.88167553 .00001741 00000+0 21766-3 0 9990 2 33321 97.6468 55.3717 0036525 169.8558 190.3401 14.83083028942656 GEOEYE 1 1 33331U 08042A 26061.78718183 .00000673 00000+0 13515-3 0 9998 2 33331 98.1220 137.0638 0004401 46.5462 313.6106 14.64756809934579 THEOS 1 33396U 08049A 26061.86181382 .00000179 00000+0 10408-3 0 9999 2 33396 98.5724 122.5360 0001013 88.7647 271.3646 14.20115587902874 COSMO-SKYMED 3 1 33412U 08054A 26061.87700507 .00007059 00000+0 48523-3 0 9994 2 33412 97.8425 278.6467 0014789 267.2308 92.7225 15.06172674940938 YAOGAN-4 1 33446U 08061A 26061.77020872 .00001661 00000+0 21090-3 0 9991 2 33446 97.9243 356.1272 0015698 60.0888 300.1883 14.82952036929891 GOSAT (IBUKI) 1 33492U 09002A 26061.77439779 .00000268 00000+0 55801-4 0 9998 2 33492 98.0765 174.2640 0001428 86.9895 273.1473 14.67545230915854 DEIMOS-1 1 35681U 09041A 26061.82929039 .00001189 00000+0 18333-3 0 9993 2 35681 97.7237 223.7515 0001928 128.6454 231.4928 14.75103231891201 DUBAISAT-1 1 35682U 09041B 26061.78879491 .00001559 00000+0 23970-3 0 9999 2 35682 97.9863 196.3337 0011446 56.9719 303.2588 14.74882767889416 OCEANSAT-2 1 35931U 09051A 26061.89930139 .00000003 00000+0 27366-4 0 9993 2 35931 98.2269 59.3949 0016938 171.3727 188.7734 13.99635752864469 WORLDVIEW-2 (WV-2) 1 35946U 09055A 26061.76828002 .00000189 00000+0 77064-4 0 9999 2 35946 98.4707 136.7323 0004669 163.5191 196.6149 14.37907110860351 SMOS 1 36036U 09059A 26061.58249280 .00000390 00000+0 13841-3 0 9995 2 36036 98.4425 250.4627 0001060 80.9164 279.2144 14.39753933858112 YAOGAN-7 1 36110U 09069A 26061.66089166 .00000909 00000+0 13309-3 0 9998 2 36110 98.0224 308.1055 0025300 25.6987 334.5475 14.77878186873890 TANDEM-X 1 36605U 10030A 26061.55096561 .00001203 00000+0 60498-4 0 9992 2 36605 97.4472 70.7755 0001842 94.8863 265.2582 15.19147252870450 CARTOSAT-2B 1 36795U 10035A 26061.82678653 .00000224 00000+0 37445-4 0 9993 2 36795 97.8462 113.2610 0011554 170.6704 189.4724 14.78691179844131 YAOGAN-10 1 36834U 10038A 26061.89937902 .00003123 00000+0 37258-3 0 9994 2 36834 97.9087 86.1228 0001730 91.6638 318.0974 14.84981773841431 COSMO-SKYMED 4 1 37216U 10060A 26061.84462104 .00000386 00000+0 55017-4 0 9998 2 37216 97.8854 246.9801 0001370 82.7706 277.3662 14.82150489828815 RESOURCESAT-2 1 37387U 11015A 26061.74373885 -.00000247 00000+0 -92777-4 0 9996 2 37387 98.7736 129.8746 0006078 157.1599 202.9849 14.21485869771057 HAIYANG-2A 1 37781U 11043A 26061.31080086 .00000309 00000+0 34805-3 0 9990 2 37781 99.3409 66.0284 0000556 292.1226 67.9866 13.78566920731952 RASAT 1 37791U 11044D 26061.86669660 .00000950 00000+0 17354-3 0 9995 2 37791 98.0568 154.9130 0020865 166.0536 318.4816 14.68044580777581 SRMSAT 1 37841U 11058D 26061.50080932 .00000475 00000+0 11391-3 0 9993 2 37841 19.9732 345.2138 0011888 110.4701 67.1482 14.11544423742721 PLEIADES 1A 1 38012U 11076F 26061.87495992 .00000335 00000+0 82054-4 0 9990 2 38012 98.2064 138.3744 0001670 93.2007 39.6150 14.58532159756498 ZIYUAN 1-02C (ZY 1-02C) 1 38038U 11079A 26061.85027072 .00000375 00000+0 13803-3 0 9998 2 38038 98.4194 131.3405 0005255 265.0720 223.2321 14.38114269743924 ARIRANG-3 (KOMPSAT-3) 1 38338U 12025B 26061.82472602 .00001169 00000+0 24196-3 0 9992 2 38338 98.1051 21.2022 0006760 88.0277 272.1699 14.62091222735809 EXACTVIEW-1 (ADS-1B) 1 38709U 12039C 26061.79265072 .00000178 00000+0 95857-4 0 9998 2 38709 98.9635 176.8627 0011872 116.5732 243.6664 14.24947624707558 SPOT 6 1 38755U 12047A 26061.86473949 .00000281 00000+0 70347-4 0 9992 2 38755 98.2242 130.3678 0001439 95.3814 264.7550 14.58534551717557 PLEIADES 1B 1 39019U 12068A 26061.81528463 .00000318 00000+0 78264-4 0 9993 2 39019 98.2034 138.3015 0001607 89.9132 270.2251 14.58576038705342 GOKTURK 2 1 39030U 12073A 26061.81383521 .00001057 00000+0 16259-3 0 9992 2 39030 97.6887 264.5311 0001296 56.3910 303.7424 14.75424572708825 LANDSAT 8 1 39084U 13008A 26061.79350252 .00000479 00000+0 11638-3 0 9995 2 39084 98.1932 133.6318 0001228 90.3483 269.7856 14.57123441682408 SARAL 1 39086U 13009A 26061.75757653 .00000159 00000+0 74366-4 0 9993 2 39086 98.5551 249.6604 0001087 204.6164 155.4968 14.32825611680365 GAOFEN-1 1 39150U 13018A 26061.87138969 .00000346 00000+0 56946-4 0 9993 2 39150 97.9196 136.0595 0016076 248.0455 111.9047 14.76530855692552 VNREDSAT 1 1 39160U 13021B 26061.80650047 .00000772 00000+0 15234-3 0 9994 2 39160 97.9237 119.2287 0001601 89.2285 270.9102 14.65061326684711 ARIRANG-5 (KOMPSAT-5) 1 39227U 13042A 26061.81922756 .00002019 00000+0 14845-3 0 9994 2 39227 97.6179 249.9980 0003886 128.6031 231.5544 15.04532565687866 SKYSAT-A 1 39418U 13066C 26061.68814873 .00004664 00000+0 27182-3 0 9993 2 39418 97.3969 114.4489 0020675 326.0818 33.9089 15.12289691672381 DUBAISAT-2 1 39419U 13066D 26061.82833919 .00004915 00000+0 31193-3 0 9998 2 39419 97.4520 54.8534 0012991 46.0288 314.2010 15.09265060670349 GPM-CORE 1 39574U 14009C 26061.78252946 .00014689 00000+0 31828-3 0 9992 2 39574 64.9741 304.6229 0012444 264.2311 95.7411 15.44569598681379 SENTINEL-1A 1 39634U 14016A 26061.87608892 .00000056 00000+0 21667-4 0 9996 2 39634 98.1814 70.9442 0001338 84.2453 275.8900 14.59199604634513 KAZEOSAT 1 1 39731U 14024A 26061.86155344 .00000179 00000+0 67633-4 0 9990 2 39731 98.3304 136.9197 0001083 79.0692 281.0619 14.42030811623230 ALOS-2 1 39766U 14029A 26061.82034516 .00001942 00000+0 26684-3 0 9995 2 39766 97.9199 160.5171 0001425 100.1262 260.0110 14.79469332635857 KAZEOSAT 2 1 40010U 14033A 26061.79589748 .00001560 00000+0 18730-3 0 9991 2 40010 97.5490 266.9754 0007637 319.4644 40.6002 14.85325335633164 HODOYOSHI-4 1 40011U 14033B 26061.85193427 .00001534 00000+0 17294-3 0 9999 2 40011 97.5443 251.8158 0022656 300.3106 59.5870 14.87811424632997 DEIMOS-2 1 40013U 14033D 26061.86140897 .00002547 00000+0 24798-3 0 9997 2 40013 97.5993 300.0097 0001232 51.8866 308.2465 14.93372288621850 HODOYOSHI-3 1 40015U 14033F 26061.47144297 .00001544 00000+0 18500-3 0 9994 2 40015 97.6289 228.8896 0032631 348.5159 11.5309 14.85112319631785 SPOT 7 1 40053U 14034A 26061.81452867 .00000449 00000+0 10120-3 0 9993 2 40053 98.0767 126.9961 0001275 100.3396 259.7949 14.60850765621604 SKYSAT-B 1 40072U 14037D 26061.80195417 .00002459 00000+0 27660-3 0 9991 2 40072 98.3716 14.8050 0004178 263.0279 97.0460 14.87691447630147 WORLDVIEW-3 (WV-3) 1 40115U 14048A 26061.76705237 .00001220 00000+0 15003-3 0 9996 2 40115 97.8647 138.0513 0000666 16.0558 344.0677 14.84815513626115 GAOFEN-2 1 40118U 14049A 26061.88793933 .00000872 00000+0 12018-3 0 9998 2 40118 98.0246 126.1478 0006529 208.7899 151.2953 14.80759237623507 YAOGAN-21 1 40143U 14053A 26061.84077735 .00005486 00000+0 22356-3 0 9994 2 40143 97.1634 106.6786 0010115 106.4983 253.7368 15.24809196638744 YAOGAN-22 1 40275U 14063A 26061.63807508 -.00000035 00000+0 31022-4 0 9994 2 40275 100.7523 211.2148 0006747 72.9803 287.2047 13.15526766545804 ASNARO 1 40298U 14070A 26061.81170429 .00010986 00000+0 51825-3 0 9999 2 40298 97.3533 140.7534 0006976 163.5697 196.5766 15.19613928627857 YAOGAN-24 1 40310U 14072A 26061.86487693 .00001210 00000+0 18237-3 0 9995 2 40310 98.1286 198.4151 0012037 242.2540 117.7449 14.76211783608035 CBERS 4 1 40336U 14079A 26061.88198277 -.00000042 00000+0 20023-6 0 9991 2 40336 98.3504 122.1131 0000846 54.6783 305.4482 14.35409776588709 YAOGAN-26 1 40362U 14088A 26061.86358807 .00033421 00000+0 76141-3 0 9990 2 40362 97.0658 64.8913 0007433 81.2619 278.9471 15.42837899621280 SMAP 1 40376U 15003A 26061.75498678 .00000676 00000+0 14009-3 0 9993 2 40376 98.1310 70.3407 0001211 112.6519 247.4811 14.63328110592052 KOMPSAT-3A 1 40536U 15014A 26061.87380097 .00027994 00000+0 49037-3 0 9992 2 40536 97.6858 45.9367 0062770 202.2813 157.5708 15.48321218605332 SENTINEL-2A 1 40697U 15028A 26056.18000490 .00000159 00000+0 76852-4 0 9999 2 40697 98.5024 132.8928 0054368 194.7437 165.2162 14.30192923557712 GAOFEN-8 1 40701U 15030A 26061.87030447 .00025756 00000+0 60190-3 0 9992 2 40701 97.6923 249.1403 0009290 213.2728 146.7936 15.42118495595047 CARBONITE 1 (CBNT-1) 1 40718U 15032D 26061.80772505 .00002768 00000+0 34485-3 0 9999 2 40718 97.6453 244.3712 0013224 285.4746 74.5008 14.83180346573576 YAOGAN-27 1 40878U 15040A 26061.90339051 -.00000551 00000+0 -13398-2 0 9990 2 40878 100.1090 52.9296 0008871 98.7976 261.4143 13.16063429503681 GAOFEN-9 01 1 40894U 15047A 26061.84542032 .00001362 00000+0 17410-3 0 9992 2 40894 97.6428 102.3108 0028665 127.2771 233.1063 14.82660790564435 YAOGAN-28 1 41026U 15064A 26061.88110028 .00010922 00000+0 42851-3 0 9998 2 41026 97.2886 202.5326 0010679 200.8262 159.2543 15.25855588574465 YAOGAN-29 1 41038U 15069A 26061.84482822 .00000867 00000+0 11337-3 0 9998 2 41038 98.0153 90.2559 0002315 48.5816 311.5596 14.82987484554860 KENT RIDGE 1 1 41167U 15077B 26061.85598808 .00005681 00000+0 20654-3 0 9994 2 41167 14.9806 336.3513 0008387 180.3239 179.7078 15.22383471564869 GAOFEN-4 1 41194U 15083A 26061.83864140 -.00000351 00000+0 00000+0 0 9993 2 41194 0.3753 83.7807 0003690 86.5377 37.8811 1.00270049 37467 JASON-3 1 41240U 16002A 26061.82787552 -.00000045 00000+0 69071-4 0 9995 2 41240 66.0449 349.4463 0007841 276.7674 83.2453 12.87628080473555 SENTINEL-3A 1 41335U 16011A 26061.82949447 .00000148 00000+0 79002-4 0 9991 2 41335 98.6243 130.7158 0001236 100.6031 259.5288 14.26738835522890 ZIYUAN 3-02 (ZY 3-02) 1 41556U 16033A 26061.83463167 .00008402 00000+0 37645-3 0 9998 2 41556 97.3917 139.6135 0011423 325.6644 34.3852 15.21432900541819 CARTOSAT-2C 1 41599U 16040A 26061.82161083 .00004527 00000+0 21756-3 0 9994 2 41599 97.4625 123.1890 0010351 144.2305 215.9625 15.19282628537566 SKYSAT-C1 1 41601U 16040C 26061.65780184 .00011035 00000+0 33393-3 0 9990 2 41601 96.9710 99.2133 0004037 67.4895 292.6776 15.34337075541520 LAPAN-A3 1 41603U 16040E 26061.84180550 .00004964 00000+0 16123-3 0 9999 2 41603 97.1471 61.5516 0011807 45.0970 315.1229 15.32304729538523 GAOFEN-3 1 41727U 16049A 26061.86644402 -.00000035 00000+0 25226-5 0 9990 2 41727 98.4049 71.2408 0001597 96.4815 263.6557 14.42213717503323 SKYSAT-C4 1 41771U 16058B 26061.59675854 .00018797 00000+0 39901-3 0 9990 2 41771 96.9292 88.0224 0000935 75.8539 284.2815 15.45075178528993 SKYSAT-C5 1 41772U 16058C 26061.58584760 .00010154 00000+0 30963-3 0 9993 2 41772 97.0630 106.9569 0001925 85.5775 274.5688 15.34125336527409 SKYSAT-C2 1 41773U 16058D 26061.62384549 .00014218 00000+0 36418-3 0 9998 2 41773 97.0285 87.8558 0005376 83.9934 276.1925 15.39471988528645 SKYSAT-C3 1 41774U 16058E 26061.57730928 .00023380 00000+0 44922-3 0 9998 2 41774 96.9188 96.7509 0001539 101.8501 258.2923 15.47941787529590 ALSAT-1B 1 41785U 16059C 26061.87442921 .00000735 00000+0 12406-3 0 9998 2 41785 97.7803 75.2115 0008538 200.1964 159.8908 14.72179234504939 PATHFINDER 1 1 41787U 16059E 26061.57122830 .00000969 00000+0 17821-3 0 9996 2 41787 97.8174 65.6686 0028339 183.3227 176.7795 14.67502968504079 SCATSAT 1 1 41790U 16059H 26061.75425603 .00001759 00000+0 23862-3 0 9994 2 41790 98.1319 124.3864 0053986 230.1435 129.5020 14.79235894 85858 GOKTURK 1A 1 41875U 16073A 26061.87759248 .00000582 00000+0 12336-3 0 9999 2 41875 98.1381 318.1499 0001378 79.1027 281.0329 14.62740555493287 RESOURCESAT-2A 1 41877U 16074A 26061.86359397 -.00000024 00000+0 90355-5 0 9993 2 41877 98.7624 136.2042 0002807 50.1267 310.0157 14.21596806479190 CARTOSAT-2D 1 41948U 17008A 26061.85521131 .00003378 00000+0 16328-3 0 9996 2 41948 97.4248 123.0731 0004400 245.6276 114.4499 15.19296429501432 SENTINEL-2B 1 42063U 17013A 26061.84385679 -.00000001 00000+0 16195-4 0 9999 2 42063 98.5676 138.1371 0001096 94.3621 265.7687 14.30816194469437 CARTOSAT-2E 1 42767U 17036C 26061.80629318 .00005371 00000+0 25811-3 0 9990 2 42767 97.4418 123.2887 0003032 328.8968 31.2087 15.19241256481992 FORMOSAT-5 1 42920U 17049A 26061.77590895 .00000251 00000+0 74677-4 0 9995 2 42920 98.2324 139.4330 0012021 56.1799 304.0539 14.50816855451246 SENTINEL-5P 1 42969U 17064A 26061.76759585 .00000080 00000+0 59124-4 0 9997 2 42969 98.7875 4.6807 0001107 80.8299 279.3002 14.19547081434460 SKYSAT-C11 1 42987U 17068A 26061.62504208 .00032172 00000+0 53745-3 0 9995 2 42987 97.4184 206.3788 0000772 88.2492 271.8849 15.51873572466681 SKYSAT-C10 1 42988U 17068B 26061.61502054 .00012945 00000+0 41514-3 0 9999 2 42988 97.4321 197.6950 0001182 90.8311 269.3066 15.32470276466027 SKYSAT-C9 1 42989U 17068C 26061.62479956 .00018049 00000+0 47434-3 0 9993 2 42989 97.4246 197.6820 0009646 156.0688 204.1007 15.38608931466350 SKYSAT-C8 1 42990U 17068D 26061.60900712 .00014544 00000+0 43646-3 0 9999 2 42990 97.4344 197.1032 0001268 106.9595 253.1787 15.34558761465959 SKYSAT-C7 1 42991U 17068E 26061.59885859 .00014951 00000+0 44921-3 0 9991 2 42991 97.4351 198.0754 0007385 125.6485 234.5447 15.34489067466017 SKYSAT-C6 1 42992U 17068F 26061.65074517 .00013849 00000+0 44292-3 0 9996 2 42992 97.4386 198.4322 0003531 129.4456 230.7098 15.32537296465992 CARTOSAT-2F 1 43111U 18004A 26061.83820406 .00005069 00000+0 24421-3 0 9994 2 43111 97.4179 123.1217 0000622 274.2460 85.8704 15.19179736451181 GAOFEN-1 02 1 43259U 18031A 26061.83051828 .00000741 00000+0 11393-3 0 9997 2 43259 98.0667 124.5922 0002925 8.9298 351.1963 14.76465360427003 GAOFEN-1 03 1 43260U 18031B 26061.87642389 .00001058 00000+0 15949-3 0 9994 2 43260 98.0649 124.5071 0004000 67.8642 292.2992 14.76461796427009 GAOFEN-1 04 1 43262U 18031D 26061.85212243 .00000727 00000+0 11194-3 0 9996 2 43262 98.0669 124.6613 0002077 89.9128 270.2320 14.76461776426998 SENTINEL-3B 1 43437U 18039A 26061.80261942 .00000155 00000+0 82049-4 0 9996 2 43437 98.6244 130.8365 0000824 126.9282 233.1974 14.26741817408952 GAOFEN-5 01 1 43461U 18043A 26061.80730647 .00000587 00000+0 13103-3 0 9994 2 43461 98.4453 31.2344 0002882 65.2798 294.8702 14.60514074416169 GAOFEN-6 1 43484U 18048A 26061.88406522 .00001111 00000+0 16609-3 0 9992 2 43484 97.7894 128.4050 0012700 155.3995 204.7824 14.76581950417708 GAOFEN-11 01 1 43585U 18063A 26061.84105417 .00013303 00000+0 22267-3 0 9999 2 43585 97.1435 129.2003 0004410 26.4145 333.7332 15.51985597423833 ICESAT-2 1 43613U 18070A 26061.75174104 .00003801 00000+0 13801-3 0 9994 2 43613 91.9988 262.3021 0002945 134.2013 225.9478 15.28270112416202 HYSIS 1 43719U 18096A 26061.83384791 .00001345 00000+0 19080-3 0 9999 2 43719 97.9964 129.3628 0001680 101.4657 258.6743 14.78636809391707 KAZSTSAT 1 43783U 18099AB 26061.67948128 .00001057 00000+0 90378-4 0 9995 2 43783 97.4417 98.3805 0007410 33.5786 326.5906 14.99601625395344 SAUDISAT 5A 1 43831U 18102A 26061.84277782 .00008091 00000+0 30913-3 0 9997 2 43831 97.3207 125.4934 0010948 144.2004 215.9971 15.26823005399449 SAUDISAT 5B 1 43833U 18102C 26061.88147677 .00007389 00000+0 27987-3 0 9998 2 43833 97.3304 128.4113 0011588 146.5114 213.6860 15.27136158399561 GAOFEN-10R 1 44622U 19066A 26061.88450609 .00001956 00000+0 24660-3 0 9996 2 44622 98.0387 14.7717 0007857 124.7640 235.4313 14.83124121346622 CARTOSAT-3 1 44804U 19081A 26061.85300422 .00004119 00000+0 19787-3 0 9997 2 44804 97.4441 125.3612 0013352 161.2846 198.8882 15.19316993347323 GAOFEN-12 01 1 44819U 19082A 26061.82817163 .00000652 00000+0 92060-4 0 9990 2 44819 97.8140 71.0070 0002055 64.8790 295.2635 14.80355145338358 CSG-1 1 44873U 19092A 26061.85727083 .00000753 00000+0 10110-3 0 9992 2 44873 97.8861 246.9940 0001325 87.1047 273.0317 14.82161916335721 NEMO-HD 1 46277U 20061F 26061.80791266 .00012667 00000+0 29591-3 0 9999 2 46277 97.2063 124.9356 0002564 86.4278 273.7263 15.42313201305579 SENTINEL-6A 1 46984U 20086A 26061.74609059 -.00000060 00000+0 52692-5 0 9997 2 46984 66.0444 356.1325 0007814 270.7850 89.2270 12.80929535246690 GAOFEN-12 02 1 48079U 21026A 26061.82792117 .00000647 00000+0 92144-4 0 9991 2 48079 97.9912 60.4612 0004041 204.0211 156.0812 14.80193216266029 PLEIADES NEO 3 1 48268U 21034A 26061.88951436 -.00000144 00000+0 -11741-4 0 9995 2 48268 97.8935 138.1820 0001265 91.4725 268.6633 14.81671606261919 PLEIADES NEO 4 1 49070U 21073E 26061.85573519 -.00006891 00000+0 -87013-3 0 9998 2 49070 97.8940 138.1447 0001382 90.3412 269.7959 14.81667808245625 LANDSAT 9 1 49260U 21088A 26061.75928878 .00000485 00000+0 11761-3 0 9994 2 49260 98.1953 133.6570 0001201 89.9465 270.1871 14.57117278235502 CSG-2 1 51444U 22008A 26061.82350891 .00001037 00000+0 13676-3 0 9997 2 51444 97.8854 246.9584 0001439 78.8981 281.2394 14.82152352220834 GAOFEN-12 03 1 52912U 22069A 26061.83552346 .00000962 00000+0 13440-3 0 9990 2 52912 97.8427 312.3192 0002111 100.1289 260.0162 14.79831415198889 SWOT 1 54754U 22173A 26061.80725169 .00000018 00000+0 13789-4 0 9993 2 54754 77.6117 178.9093 0000507 277.5246 82.5848 14.00168356164266 GAOFEN-12 04 1 57654U 23123A 26061.86481029 .00001603 00000+0 21890-3 0 9993 2 57654 97.9132 341.4276 0001705 78.5231 281.6172 14.79979191136909 PARS 1 1 59065U 24039Q 26061.87226488 .00015716 00000+0 35507-3 0 9995 2 59065 97.4737 39.6904 0011570 130.7540 229.4714 15.43205628112233 RESURS-P 4 1 59371U 24061A 26061.89148539 .00005416 00000+0 17310-3 0 9990 2 59371 97.2646 11.6710 0002770 66.8483 293.3051 15.32854173107480 LEGION 1 1 59625U 24081A 26061.81140676 .00005980 00000+0 30220-3 0 9991 2 59625 97.5090 140.7691 0005626 42.1250 318.0415 15.17428621101416 LEGION 2 1 59626U 24081B 26061.78002736 .00005549 00000+0 28804-3 0 9998 2 59626 97.5089 140.8246 0010836 9.4721 350.6714 15.16479913101413 ALOS-4 (DAICHI-4) 1 60182U 24123A 26060.48702149 .00000099 00000+0 20162-4 0 9990 2 60182 97.9199 159.2056 0001421 100.4469 259.6903 14.79470212 89955 LEGION 3 1 60452U 24146A 26061.82484844 .00006641 00000+0 35203-3 0 9993 2 60452 44.9995 240.7341 0013802 283.8172 76.1171 15.16051661 85889 LEGION 4 1 60453U 24146B 26061.82325295 .00006827 00000+0 36127-3 0 9990 2 60453 45.0042 332.5927 0009668 60.8375 299.3470 15.16110814 84738 SENTINEL-2C 1 60989U 24157A 26061.80891737 .00000162 00000+0 78575-4 0 9993 2 60989 98.5631 138.1193 0000802 97.8328 262.2946 14.30822207 77777 IONOSFERA-M 1 1 61735U 24199A 26061.78992266 .00000071 00000+0 51524-4 0 9999 2 61735 98.7339 295.9943 0002107 86.2496 273.8923 14.22733668112571 IONOSFERA-M 2 1 61736U 24199B 26061.82443439 .00000075 00000+0 53101-4 0 9995 2 61736 98.7338 295.9401 0000239 58.0791 302.0410 14.22736017115704 BIOMASS 1 63772U 25090A 26061.52999993 .00000393 00000+0 77759-4 0 9994 2 63772 98.0734 250.3819 0001518 84.8272 275.3106 14.67539220 45048 GOSAT-GW (IBUKI GW) 1 64694U 25141A 26061.82719575 .00001627 00000+0 29520-3 0 9997 2 64694 98.0498 0.9191 0001411 83.9802 276.1564 14.67560855 36249 IONOSFERA-M 3 1 64876U 25155A 26061.88768956 .00000090 00000+0 60739-4 0 9998 2 64876 98.5910 26.5378 0001865 128.9368 231.1976 14.21464507 31303 IONOSFERA-M 4 1 64877U 25155B 26061.85228788 .00000106 00000+0 68022-4 0 9991 2 64877 98.5907 26.4219 0001524 109.8890 250.2452 14.21466188 31299 MICROCARB 1 64899U 25156A 26061.78674269 .00000833 00000+0 13982-3 0 9998 2 64899 97.9899 140.8082 0015092 250.4791 109.4786 14.72206505 32313 CO3D 3 1 64900U 25156B 26061.81800720 .00006592 00000+0 30726-3 0 9991 2 64900 97.4333 142.0380 0001431 160.8841 199.2448 15.20213130 33376 CO3D 4 1 64901U 25156C 26061.29158243 .00001237 00000+0 60250-4 0 9997 2 64901 97.4334 141.5187 0000254 280.3117 79.8089 15.20203154 33293 CO3D 2 1 64902U 25156D 26061.85064397 .00006793 00000+0 31660-3 0 9990 2 64902 97.4333 141.9686 0001296 135.5966 224.5373 15.20205030 33370 CO3D 1 1 64903U 25156E 26061.85078972 .00006140 00000+0 28661-3 0 9998 2 64903 97.4328 141.9685 0001072 137.1138 223.0181 15.20191150 33373 SENTINEL-6B 1 66514U 25264A 26061.51219847 -.00000065 00000+0 -19379-4 0 9998 2 66514 66.0444 356.7442 0007993 270.7177 89.2922 12.80929292 13503 CSG-3 1 67304U 26001A 26061.86993683 .00000560 00000+0 76868-4 0 9995 2 67304 97.8861 247.0062 0001367 90.0001 270.1369 14.82163934 8714